RYR8598 LEBL-LICR

Flight info

Callsign RYR8598
Flight time 1h 45m
Altitude 39000
Route DIPES DCT TOSNU DCT LAPIT DCT OSPOK DCT NOLVI DCT ORKUM DCT ELSAG DCT ALG DCT ROXAN DCT DIRED DCT PIGER L869 PEROS
Aircraft B737/M-SDE2E3FGHIRWXY/LB1

Departure

Time 2026-04-28 03:44
Airport Josep Tarradellas Barcelona-El Prat Airport (LEBL)

Arrival

Time 2026-04-28 05:29
Airport Reggio Calabria Airport (LICR)
Time Latitude Longitude Altitude Speed Heading
2026-04-28 03:21 41.30074 2.07507 14 ft 0 kts 336°
2026-04-28 03:29 41.30067 2.07511 14 ft 2 kts 336°
2026-04-28 03:29 41.30052 2.07520 17 ft 2 kts 336°
2026-04-28 03:30 41.30037 2.07529 16 ft 2 kts 337°
2026-04-28 03:30 41.30022 2.07537 16 ft 2 kts 342°
2026-04-28 03:30 41.30006 2.07540 14 ft 2 kts
2026-04-28 03:30 41.29990 2.07534 14 ft 2 kts 46°
2026-04-28 03:31 41.29980 2.07516 16 ft 2 kts 67°
2026-04-28 03:31 41.29975 2.07501 13 ft 1 kts 64°
2026-04-28 03:31 41.29975 2.07500 13 ft 0 kts 64°
2026-04-28 03:34 41.29977 2.07505 13 ft 3 kts 63°
2026-04-28 03:34 41.29988 2.07536 14 ft 4 kts 64°
2026-04-28 03:34 41.30000 2.07568 15 ft 4 kts 64°
2026-04-28 03:35 41.30013 2.07604 14 ft 5 kts 65°
2026-04-28 03:35 41.30025 2.07649 14 ft 5 kts 85°
2026-04-28 03:35 41.30005 2.07693 15 ft 7 kts 133°
2026-04-28 03:35 41.30000 2.07760 14 ft 8 kts 68°
2026-04-28 03:36 41.30024 2.07831 14 ft 9 kts 65°
2026-04-28 03:36 41.30050 2.07909 15 ft 9 kts 66°
2026-04-28 03:36 41.30076 2.07987 17 ft 9 kts 64°
2026-04-28 03:36 41.30103 2.08062 20 ft 9 kts 65°
2026-04-28 03:37 41.30127 2.08136 21 ft 9 kts 65°
2026-04-28 03:37 41.30152 2.08208 19 ft 8 kts 65°
2026-04-28 03:37 41.30176 2.08277 21 ft 8 kts 65°
2026-04-28 03:37 41.30202 2.08353 23 ft 10 kts 66°
2026-04-28 03:38 41.30231 2.08438 21 ft 11 kts 65°
2026-04-28 03:38 41.30268 2.08542 19 ft 14 kts 65°
2026-04-28 03:38 41.30311 2.08669 18 ft 15 kts 65°
2026-04-28 03:38 41.30354 2.08796 17 ft 15 kts 66°
2026-04-28 03:39 41.30396 2.08917 17 ft 14 kts 65°
2026-04-28 03:39 41.30440 2.09031 19 ft 13 kts 65°
2026-04-28 03:39 41.30478 2.09141 22 ft 13 kts 65°
2026-04-28 03:39 41.30516 2.09249 21 ft 13 kts 65°
2026-04-28 03:40 41.30552 2.09355 26 ft 12 kts 66°
2026-04-28 03:40 41.30589 2.09462 23 ft 14 kts 66°
2026-04-28 03:40 41.30633 2.09589 22 ft 16 kts 67°
2026-04-28 03:40 41.30677 2.09723 21 ft 16 kts 66°
2026-04-28 03:41 41.30726 2.09866 17 ft 19 kts 66°
2026-04-28 03:41 41.30781 2.10025 16 ft 19 kts 65°
2026-04-28 03:41 41.30833 2.10175 16 ft 13 kts 66°
2026-04-28 03:41 41.30804 2.10257 14 ft 11 kts 152°
2026-04-28 03:42 41.30728 2.10304 13 ft 13 kts 155°
2026-04-28 03:42 41.30647 2.10353 16 ft 13 kts 156°
2026-04-28 03:42 41.30570 2.10352 17 ft 12 kts 225°
2026-04-28 03:42 41.30553 2.10309 15 ft 0 kts 245°
2026-04-28 03:43 41.30549 2.10298 16 ft 12 kts 245°
2026-04-28 03:43 41.30403 2.09875 16 ft 89 kts 246°
2026-04-28 03:43 41.30059 2.08848 35 ft 149 kts 248°
2026-04-28 03:43 41.29606 2.07524 584 ft 160 kts 246°
2026-04-28 03:44 41.29131 2.06148 1315 ft 168 kts 246°
2026-04-28 03:44 41.28643 2.04713 2094 ft 172 kts 245°
2026-04-28 03:44 41.28151 2.03261 2939 ft 174 kts 245°
2026-04-28 03:44 41.27629 2.01762 3672 ft 186 kts 245°
2026-04-28 03:45 41.27054 2.00082 4131 ft 212 kts 244°
2026-04-28 03:45 41.26379 1.98195 4538 ft 234 kts 237°
2026-04-28 03:45 41.25204 1.96694 5272 ft 245 kts 206°
2026-04-28 03:45 41.23538 1.96154 6136 ft 246 kts 186°
2026-04-28 03:46 41.21896 1.95619 7193 ft 246 kts 207°
2026-04-28 03:46 41.20586 1.94133 8063 ft 248 kts 228°
2026-04-28 03:46 41.19393 1.92478 9019 ft 249 kts 222°
2026-04-28 03:46 41.18122 1.90884 9872 ft 254 kts 226°
2026-04-28 03:47 41.16667 1.89577 10608 ft 258 kts 194°
2026-04-28 03:47 41.14904 1.89661 11450 ft 258 kts 158°
2026-04-28 03:47 41.13501 1.91063 12255 ft 260 kts 130°
2026-04-28 03:47 41.12306 1.92891 13059 ft 265 kts 135°
2026-04-28 03:48 41.10956 1.94578 13888 ft 268 kts 140°
2026-04-28 03:48 41.09505 1.96161 14656 ft 271 kts 143°
2026-04-28 03:48 41.08006 1.97703 15425 ft 275 kts 144°
2026-04-28 03:48 41.06451 1.99218 16121 ft 283 kts 148°
2026-04-28 03:49 41.04713 2.00663 16362 ft 308 kts 150°
2026-04-28 03:49 41.02800 2.02192 16568 ft 334 kts 150°
2026-04-28 03:49 41.00743 2.03851 16747 ft 358 kts 149°
2026-04-28 03:49 40.98783 2.06051 16881 ft 384 kts 129°
2026-04-28 03:50 40.97192 2.08982 17280 ft 398 kts 126°
2026-04-28 03:50 40.95612 2.12035 17902 ft 404 kts 126°
2026-04-28 03:50 40.94012 2.15117 18585 ft 408 kts 126°
2026-04-28 03:50 40.92383 2.18206 19203 ft 411 kts 127°
2026-04-28 03:51 40.90724 2.21312 19821 ft 415 kts 127°
2026-04-28 03:51 40.89049 2.24439 20436 ft 419 kts 126°
2026-04-28 03:51 40.87773 2.27928 20985 ft 428 kts 107°
2026-04-28 03:51 40.87436 2.31847 21592 ft 434 kts 88°
2026-04-28 03:52 40.88014 2.35763 22175 ft 439 kts 69°
2026-04-28 03:52 40.89235 2.39427 22745 ft 443 kts 65°
2026-04-28 03:52 40.90596 2.43167 23257 ft 448 kts 64°
2026-04-28 03:52 40.91956 2.46839 23731 ft 452 kts 64°
2026-04-28 03:53 40.93336 2.50597 24194 ft 455 kts 64°
2026-04-28 03:53 40.94706 2.54383 24677 ft 458 kts 65°
2026-04-28 03:53 40.96069 2.58204 25138 ft 460 kts 65°
2026-04-28 03:53 40.97429 2.62054 25597 ft 463 kts 65°
2026-04-28 03:54 40.98788 2.65925 26035 ft 466 kts 65°
2026-04-28 03:54 41.00159 2.69836 26454 ft 468 kts 65°
2026-04-28 03:54 41.01532 2.73761 26859 ft 471 kts 65°
2026-04-28 03:54 41.02913 2.77711 27255 ft 474 kts 65°
2026-04-28 03:55 41.04302 2.81685 27656 ft 477 kts 65°
2026-04-28 03:55 41.05696 2.85681 28044 ft 479 kts 65°
2026-04-28 03:55 41.07097 2.89701 28417 ft 482 kts 64°
2026-04-28 03:55 41.08504 2.93740 28777 ft 484 kts 64°
2026-04-28 03:56 41.09894 2.97819 29116 ft 487 kts 68°
2026-04-28 03:56 41.10712 3.02183 29412 ft 491 kts 85°
2026-04-28 03:56 41.10624 3.06699 29932 ft 488 kts 96°
2026-04-28 03:56 41.10224 3.11148 30477 ft 485 kts 98°
2026-04-28 03:57 41.09784 3.15529 30883 ft 485 kts 98°
2026-04-28 03:57 41.09339 3.19969 31225 ft 486 kts 97°
2026-04-28 03:57 41.08916 3.24417 31586 ft 486 kts 97°
2026-04-28 03:57 41.08513 3.28864 31984 ft 485 kts 97°
2026-04-28 03:58 41.08122 3.33305 32401 ft 484 kts 96°
2026-04-28 03:58 41.07737 3.37737 32777 ft 484 kts 96°
2026-04-28 03:58 41.07350 3.42165 33123 ft 484 kts 96°
2026-04-28 03:58 41.06960 3.46599 33475 ft 484 kts 96°
2026-04-28 03:59 41.06567 3.51023 33860 ft 483 kts 96°
2026-04-28 03:59 41.06139 3.55433 34199 ft 482 kts 99°
2026-04-28 03:59 41.05460 3.59787 34463 ft 483 kts 104°
2026-04-28 03:59 41.04630 3.64100 34714 ft 483 kts 105°
2026-04-28 04:00 41.03782 3.68350 34978 ft 483 kts 105°
2026-04-28 04:00 41.02952 3.72659 35252 ft 483 kts 104°
2026-04-28 04:00 41.02156 3.76993 35506 ft 484 kts 104°
2026-04-28 04:00 41.01378 3.81327 35740 ft 484 kts 103°
2026-04-28 04:01 41.00600 3.85665 35994 ft 484 kts 104°
2026-04-28 04:01 40.99817 3.90002 36254 ft 484 kts 104°
2026-04-28 04:01 40.99031 3.94333 36506 ft 484 kts 104°
2026-04-28 04:01 40.98242 3.98667 36719 ft 485 kts 104°
2026-04-28 04:02 40.97449 4.03016 36933 ft 485 kts 104°
2026-04-28 04:02 40.96655 4.07358 37175 ft 485 kts 104°
2026-04-28 04:02 40.95861 4.11695 37440 ft 485 kts 104°
2026-04-28 04:02 40.95067 4.16024 37681 ft 485 kts 104°
2026-04-28 04:03 40.94269 4.20361 37884 ft 485 kts 104°
2026-04-28 04:03 40.93469 4.24703 38091 ft 486 kts 104°
2026-04-28 04:03 40.92667 4.29043 38326 ft 485 kts 104°
2026-04-28 04:03 40.91865 4.33373 38579 ft 485 kts 104°
2026-04-28 04:04 40.91064 4.37697 38773 ft 485 kts 104°
2026-04-28 04:04 40.90258 4.42030 38900 ft 486 kts 104°
2026-04-28 04:04 40.89449 4.46371 39020 ft 487 kts 104°
2026-04-28 04:04 40.88644 4.50720 39023 ft 487 kts 104°
2026-04-28 04:05 40.87061 4.59339 39037 ft 485 kts 104°
2026-04-28 04:05 40.85516 4.67995 39033 ft 484 kts 100°
2026-04-28 04:06 40.84625 4.76803 39036 ft 484 kts 96°
2026-04-28 04:06 40.83897 4.85643 39036 ft 483 kts 96°
2026-04-28 04:07 40.83126 4.94466 39037 ft 484 kts 97°
2026-04-28 04:07 40.82307 5.03285 39040 ft 484 kts 97°
2026-04-28 04:08 40.81609 5.10612 39040 ft 484 kts 97°
2026-04-28 04:08 40.80762 5.19440 39040 ft 484 kts 97°
2026-04-28 04:09 40.79911 5.28265 39043 ft 485 kts 97°
2026-04-28 04:09 40.79055 5.37088 39038 ft 485 kts 97°
2026-04-28 04:10 40.78192 5.45908 39035 ft 484 kts 97°
2026-04-28 04:10 40.77327 5.54671 39040 ft 484 kts 97°
2026-04-28 04:11 40.76452 5.63475 39044 ft 484 kts 97°
2026-04-28 04:11 40.75570 5.72269 39042 ft 483 kts 97°
2026-04-28 04:12 40.74684 5.81048 39038 ft 483 kts 97°
2026-04-28 04:12 40.73793 5.89814 39047 ft 482 kts 98°
2026-04-28 04:13 40.72894 5.98568 39047 ft 482 kts 98°
2026-04-28 04:13 40.71983 6.07327 39043 ft 481 kts 98°
2026-04-28 04:14 40.71073 6.16013 39040 ft 481 kts 98°
2026-04-28 04:14 40.70152 6.24750 39042 ft 481 kts 98°
2026-04-28 04:15 40.69224 6.33487 39049 ft 481 kts 98°
2026-04-28 04:16 40.67826 6.46593 39045 ft 482 kts 98°
2026-04-28 04:16 40.66883 6.55341 39049 ft 482 kts 98°
2026-04-28 04:17 40.65930 6.64082 39040 ft 482 kts 98°
2026-04-28 04:17 40.64975 6.72782 39054 ft 483 kts 98°
2026-04-28 04:18 40.64009 6.81528 39043 ft 483 kts 98°
2026-04-28 04:18 40.63034 6.90281 39038 ft 483 kts 98°
2026-04-28 04:19 40.62053 6.99035 39049 ft 483 kts 98°
2026-04-28 04:19 40.61066 7.07781 39038 ft 483 kts 98°
2026-04-28 04:20 40.60072 7.16532 39037 ft 483 kts 98°
2026-04-28 04:20 40.59070 7.25282 39042 ft 483 kts 98°
2026-04-28 04:21 40.58061 7.34030 39040 ft 483 kts 98°
2026-04-28 04:21 40.57049 7.42763 39039 ft 483 kts 98°
2026-04-28 04:22 40.56563 7.51538 39032 ft 481 kts 83°
2026-04-28 04:22 40.57340 7.60282 39034 ft 481 kts 81°
2026-04-28 04:23 40.58173 7.68952 39042 ft 481 kts 81°
2026-04-28 04:23 40.58943 7.77714 39042 ft 482 kts 82°
2026-04-28 04:24 40.59680 7.86500 39057 ft 483 kts 82°
2026-04-28 04:24 40.60412 7.95297 39048 ft 484 kts 82°
2026-04-28 04:25 40.61144 8.04112 39049 ft 485 kts 82°
2026-04-28 04:25 40.61871 8.12941 39048 ft 485 kts 82°
2026-04-28 04:26 40.62591 8.21771 39049 ft 485 kts 82°
2026-04-28 04:26 40.63306 8.30603 39046 ft 485 kts 82°
2026-04-28 04:27 40.64015 8.39437 39050 ft 484 kts 82°
2026-04-28 04:27 40.64712 8.48209 39048 ft 484 kts 82°
2026-04-28 04:28 40.65405 8.57033 39054 ft 484 kts 82°
2026-04-28 04:28 40.66092 8.65868 39056 ft 484 kts 82°
2026-04-28 04:29 40.66765 8.74619 39058 ft 483 kts 82°
2026-04-28 04:29 40.67435 8.83420 39062 ft 483 kts 82°
2026-04-28 04:30 40.68099 8.92223 39063 ft 482 kts 82°
2026-04-28 04:30 40.68756 9.01017 39062 ft 482 kts 82°
2026-04-28 04:31 40.69405 9.09812 39065 ft 482 kts 82°
2026-04-28 04:31 40.70048 9.18605 39067 ft 482 kts 82°
2026-04-28 04:32 40.70681 9.27345 39068 ft 482 kts 82°
2026-04-28 04:32 40.71310 9.36137 39073 ft 482 kts 83°
2026-04-28 04:33 40.71932 9.44940 39074 ft 482 kts 83°
2026-04-28 04:33 40.72548 9.53741 39074 ft 482 kts 83°
2026-04-28 04:34 40.73158 9.62537 39068 ft 481 kts 83°
2026-04-28 04:34 40.73759 9.71324 39068 ft 481 kts 83°
2026-04-28 04:35 40.74354 9.80113 39068 ft 481 kts 83°
2026-04-28 04:35 40.74943 9.88912 39064 ft 482 kts 83°
2026-04-28 04:36 40.75525 9.97711 39064 ft 482 kts 83°
2026-04-28 04:36 40.76098 10.06472 39066 ft 482 kts 83°
2026-04-28 04:37 40.76668 10.15298 39067 ft 482 kts 83°
2026-04-28 04:37 40.77231 10.24112 39064 ft 482 kts 83°
2026-04-28 04:38 40.77787 10.32934 39070 ft 482 kts 83°
2026-04-28 04:38 40.78337 10.41759 39069 ft 483 kts 83°
2026-04-28 04:39 40.78877 10.50547 39068 ft 483 kts 83°
2026-04-28 04:39 40.79414 10.59388 39072 ft 483 kts 83°
2026-04-28 04:40 40.79943 10.68216 39071 ft 483 kts 84°
2026-04-28 04:40 40.80466 10.77051 39074 ft 483 kts 84°
2026-04-28 04:41 40.80982 10.85890 39071 ft 483 kts 84°
2026-04-28 04:41 40.81491 10.94730 39078 ft 483 kts 84°
2026-04-28 04:42 40.81993 11.03570 39074 ft 483 kts 84°
2026-04-28 04:42 40.82490 11.12417 39079 ft 483 kts 84°
2026-04-28 04:43 40.82321 11.21274 39083 ft 485 kts 99°
2026-04-28 04:43 40.80269 11.29670 39082 ft 485 kts 115°
2026-04-28 04:44 40.77306 11.37681 39079 ft 485 kts 117°
2026-04-28 04:44 40.74309 11.45649 39071 ft 486 kts 116°
2026-04-28 04:45 40.71340 11.53655 39085 ft 486 kts 116°
2026-04-28 04:45 40.68391 11.61676 39077 ft 486 kts 116°
2026-04-28 04:46 40.65444 11.69694 39085 ft 487 kts 116°
2026-04-28 04:46 40.62505 11.77664 39082 ft 487 kts 116°
2026-04-28 04:47 40.59537 11.85683 39083 ft 487 kts 116°
2026-04-28 04:47 40.56561 11.93702 39081 ft 488 kts 116°
2026-04-28 04:48 40.53580 12.01709 39082 ft 488 kts 116°
2026-04-28 04:48 40.50589 12.09723 39087 ft 488 kts 116°
2026-04-28 04:49 40.47590 12.17738 39083 ft 489 kts 116°
2026-04-28 04:49 40.44583 12.25750 39084 ft 489 kts 116°
2026-04-28 04:50 40.41590 12.33704 39083 ft 489 kts 116°
2026-04-28 04:50 40.38568 12.41713 39079 ft 489 kts 117°
2026-04-28 04:51 40.35544 12.49705 39084 ft 489 kts 117°
2026-04-28 04:51 40.32512 12.57698 39080 ft 489 kts 117°
2026-04-28 04:52 40.29490 12.65642 39082 ft 490 kts 117°
2026-04-28 04:52 40.26448 12.73619 39080 ft 490 kts 117°
2026-04-28 04:53 40.23394 12.81602 39080 ft 490 kts 117°
2026-04-28 04:53 40.20339 12.89569 39081 ft 490 kts 117°
2026-04-28 04:54 40.17278 12.97531 39087 ft 490 kts 117°
2026-04-28 04:54 40.14224 13.05451 39079 ft 490 kts 117°
2026-04-28 04:55 40.11149 13.13406 39076 ft 490 kts 117°
2026-04-28 04:55 40.08062 13.21369 39081 ft 490 kts 117°
2026-04-28 04:56 40.04975 13.29312 39084 ft 491 kts 117°
2026-04-28 04:56 40.01876 13.37264 39079 ft 491 kts 117°
2026-04-28 04:57 39.98793 13.45156 39080 ft 491 kts 117°
2026-04-28 04:57 39.95687 13.53083 39082 ft 491 kts 117°
2026-04-28 04:58 39.92570 13.61020 39085 ft 491 kts 117°
2026-04-28 04:58 39.89449 13.68944 39079 ft 491 kts 117°
2026-04-28 04:59 39.86325 13.76854 39078 ft 491 kts 117°
2026-04-28 04:59 39.83719 13.83439 39082 ft 492 kts 117°
2026-04-28 05:00 39.80578 13.91355 39087 ft 492 kts 117°
2026-04-28 05:00 39.77433 13.99259 39080 ft 492 kts 117°
2026-04-28 05:01 39.74299 14.07118 39083 ft 492 kts 117°
2026-04-28 05:01 39.71143 14.15009 39078 ft 493 kts 117°
2026-04-28 05:02 39.67978 14.22902 39082 ft 493 kts 117°
2026-04-28 05:02 39.64804 14.30796 39088 ft 493 kts 118°
2026-04-28 05:03 39.61628 14.38676 39087 ft 493 kts 118°
2026-04-28 05:03 39.58420 14.46551 39075 ft 493 kts 121°
2026-04-28 05:04 39.54168 14.53401 39080 ft 490 kts 139°
2026-04-28 05:04 39.48730 14.58647 39091 ft 487 kts 148°
2026-04-28 05:05 39.43097 14.63526 39084 ft 487 kts 148°
2026-04-28 05:05 39.37468 14.68441 39078 ft 488 kts 148°
2026-04-28 05:06 39.31850 14.73401 39084 ft 489 kts 148°
2026-04-28 05:06 39.26233 14.78372 39085 ft 490 kts 148°
2026-04-28 05:07 39.20612 14.83337 39085 ft 490 kts 148°
2026-04-28 05:07 39.15015 14.88267 39086 ft 490 kts 148°
2026-04-28 05:08 39.09369 14.93228 39085 ft 491 kts 148°
2026-04-28 05:08 39.03720 14.98183 39090 ft 491 kts 148°
2026-04-28 05:09 38.98041 15.03153 38500 ft 499 kts 148°
2026-04-28 05:09 38.95189 15.05646 37897 ft 494 kts 148°
2026-04-28 05:09 38.92347 15.08130 37142 ft 493 kts 148°
2026-04-28 05:09 38.89523 15.10595 36466 ft 490 kts 148°
2026-04-28 05:10 38.86741 15.13019 35704 ft 489 kts 148°
2026-04-28 05:10 38.83914 15.15480 34825 ft 491 kts 147°
2026-04-28 05:10 38.81102 15.17927 34126 ft 487 kts 147°
2026-04-28 05:10 38.78281 15.20378 32907 ft 492 kts 147°
2026-04-28 05:11 38.75476 15.22814 31988 ft 482 kts 147°
2026-04-28 05:11 38.72730 15.25196 31144 ft 471 kts 147°
2026-04-28 05:11 38.70037 15.27530 30214 ft 464 kts 147°
2026-04-28 05:11 38.67375 15.29833 29096 ft 459 kts 147°
2026-04-28 05:12 38.64746 15.32106 28036 ft 454 kts 147°
2026-04-28 05:12 38.62105 15.34389 26937 ft 464 kts 147°
2026-04-28 05:12 38.59560 15.37037 26115 ft 480 kts 132°
2026-04-28 05:12 38.57711 15.40574 25248 ft 480 kts 114°
2026-04-28 05:13 38.56790 15.44625 24534 ft 470 kts 97°
2026-04-28 05:13 38.56714 15.48747 23735 ft 462 kts 81°
2026-04-28 05:13 38.57439 15.52701 22836 ft 454 kts 72°
2026-04-28 05:13 38.58344 15.56538 21977 ft 447 kts 72°
2026-04-28 05:14 38.59218 15.60332 21094 ft 442 kts 73°
2026-04-28 05:14 38.59700 15.64185 20198 ft 440 kts 90°
2026-04-28 05:14 38.59184 15.68010 19391 ft 436 kts 108°
2026-04-28 05:14 38.57838 15.71396 18579 ft 432 kts 125°
2026-04-28 05:15 38.55762 15.74207 17593 ft 430 kts 142°
2026-04-28 05:15 38.53236 15.76084 16694 ft 425 kts 159°
2026-04-28 05:15 38.50403 15.77018 15836 ft 418 kts 174°
2026-04-28 05:15 38.47521 15.77021 15042 ft 411 kts 188°
2026-04-28 05:16 38.44734 15.76344 14342 ft 402 kts 195°
2026-04-28 05:16 38.42047 15.75429 13547 ft 397 kts 197°
2026-04-28 05:16 38.39478 15.74508 12727 ft 393 kts 197°
2026-04-28 05:17 38.34254 15.72787 11435 ft 378 kts 195°
2026-04-28 05:17 38.31768 15.72014 11285 ft 358 kts 195°
2026-04-28 05:17 38.29403 15.71284 11160 ft 340 kts 195°
2026-04-28 05:17 38.27161 15.70591 11047 ft 324 kts 195°
2026-04-28 05:18 38.25049 15.69936 10944 ft 309 kts 195°
2026-04-28 05:18 38.22978 15.69292 10874 ft 295 kts 195°
2026-04-28 05:18 38.21048 15.68692 10742 ft 285 kts 195°
2026-04-28 05:18 38.19136 15.68096 10443 ft 282 kts 195°
2026-04-28 05:19 38.17236 15.67504 10088 ft 281 kts 195°
2026-04-28 05:19 38.15332 15.66912 9736 ft 280 kts 195°
2026-04-28 05:19 38.13444 15.66325 9404 ft 278 kts 195°
2026-04-28 05:19 38.11570 15.65745 9072 ft 276 kts 195°
2026-04-28 05:20 38.09706 15.65168 8732 ft 275 kts 195°
2026-04-28 05:20 38.07871 15.64539 8383 ft 272 kts 204°
2026-04-28 05:20 38.06303 15.63234 8038 ft 268 kts 219°
2026-04-28 05:20 38.04876 15.61761 7660 ft 262 kts 220°
2026-04-28 05:21 38.03489 15.60331 7432 ft 250 kts 220°
2026-04-28 05:21 38.02161 15.58973 7192 ft 240 kts 219°
2026-04-28 05:21 38.00910 15.57702 7112 ft 221 kts 219°
2026-04-28 05:21 37.99757 15.56535 6952 ft 205 kts 219°
2026-04-28 05:22 37.98653 15.55417 6568 ft 202 kts 219°
2026-04-28 05:22 37.97449 15.54537 6121 ft 202 kts 191°
2026-04-28 05:22 37.96076 15.54401 5758 ft 201 kts 184°
2026-04-28 05:22 37.94669 15.54281 5462 ft 198 kts 184°
2026-04-28 05:23 37.93319 15.54158 5147 ft 196 kts 184°
2026-04-28 05:23 37.91958 15.54039 4788 ft 196 kts 181°
2026-04-28 05:23 37.90665 15.54486 4386 ft 196 kts 142°
2026-04-28 05:23 37.89926 15.55814 4239 ft 178 kts 108°
2026-04-28 05:24 37.89843 15.57349 3835 ft 176 kts 85°
2026-04-28 05:24 37.89979 15.58887 3418 ft 176 kts 83°
2026-04-28 05:24 37.90403 15.60302 3036 ft 171 kts 44°
2026-04-28 05:24 37.91373 15.60951 3010 ft 152 kts 17°
2026-04-28 05:25 37.92370 15.61375 2956 ft 161 kts 19°
2026-04-28 05:25 37.93522 15.61878 3076 ft 182 kts 19°
2026-04-28 05:25 37.94629 15.62355 3127 ft 156 kts 19°
2026-04-28 05:25 37.95583 15.62765 2860 ft 138 kts 18°
2026-04-28 05:26 37.96491 15.63142 2732 ft 137 kts 18°
2026-04-28 05:26 37.97417 15.63526 2722 ft 141 kts 18°
2026-04-28 05:26 37.98357 15.63920 2598 ft 143 kts 20°
2026-04-28 05:26 37.99288 15.64337 2362 ft 141 kts 21°
2026-04-28 05:27 38.00201 15.64729 2070 ft 141 kts 21°
2026-04-28 05:27 38.01125 15.65147 1724 ft 138 kts 21°
2026-04-28 05:27 38.02015 15.65541 1371 ft 134 kts 19°
2026-04-28 05:27 38.02904 15.65894 1071 ft 133 kts 17°
2026-04-28 05:28 38.03788 15.66185 768 ft 132 kts 12°
2026-04-28 05:28 38.04697 15.66311 526 ft 131 kts 359°
2026-04-28 05:28 38.05593 15.66108 317 ft 133 kts 340°
2026-04-28 05:28 38.06413 15.65613 121 ft 128 kts 334°
2026-04-28 05:29 38.07155 15.65132 49 ft 103 kts 333°
2026-04-28 05:29 38.07601 15.64839 71 ft 48 kts 332°
2026-04-28 05:29 38.07753 15.64770 82 ft 10 kts 341°
2026-04-28 05:29 38.07743 15.64754 83 ft 5 kts 185°
2026-04-28 05:30 38.07698 15.64780 71 ft 9 kts 152°
2026-04-28 05:30 38.07622 15.64831 66 ft 16 kts 153°
2026-04-28 05:30 38.07501 15.64909 61 ft 21 kts 154°
2026-04-28 05:30 38.07392 15.64981 58 ft 11 kts 150°
2026-04-28 05:31 38.07319 15.65036 55 ft 13 kts 148°
2026-04-28 05:31 38.07301 15.65130 55 ft 10 kts 66°
2026-04-28 05:31 38.07332 15.65208 59 ft 9 kts 63°
2026-04-28 05:31 38.07357 15.65271 57 ft 7 kts 62°
2026-04-28 05:32 38.07367 15.65297 65 ft 0 kts 65°